LVBLE SAAR-SAZM

Flight info

Callsign LVBLE
Flight time 0h 51m
Altitude 35000
Route VASAL2G VASAL DCT MULTA UW24 SNT DCT EZE UW29 VOTRA VOTRA2U
Aircraft LJ35/M-SGHRWXY/SB1

Departure

Time 2026-05-07 09:51
Airport Rosario Islas Malvinas International Airport (SAAR)

Arrival

Time 2026-05-07 10:43
Airport Ástor Piazzola International Airport (SAZM)
Time Latitude Longitude Altitude Speed Heading
2026-05-07 09:46 -32.91407 -60.78170 90 ft 3 kts 322°
2026-05-07 09:46 -32.91361 -60.78218 90 ft 12 kts 318°
2026-05-07 09:47 -32.91289 -60.78290 90 ft 16 kts 322°
2026-05-07 09:47 -32.91193 -60.78383 92 ft 20 kts 315°
2026-05-07 09:47 -32.91073 -60.78482 91 ft 22 kts 333°
2026-05-07 09:47 -32.90933 -60.78550 93 ft 23 kts 342°
2026-05-07 09:48 -32.90773 -60.78562 92 ft 25 kts 12°
2026-05-07 09:48 -32.90586 -60.78523 91 ft 30 kts
2026-05-07 09:48 -32.90368 -60.78472 89 ft 34 kts
2026-05-07 09:48 -32.90126 -60.78419 90 ft 37 kts 11°
2026-05-07 09:49 -32.89867 -60.78358 91 ft 39 kts
2026-05-07 09:49 -32.89594 -60.78301 93 ft 40 kts 11°
2026-05-07 09:49 -32.89312 -60.78233 90 ft 41 kts
2026-05-07 09:49 -32.89183 -60.78204 93 ft 9 kts 125°
2026-05-07 09:50 -32.89240 -60.78216 90 ft 3 kts 190°
2026-05-07 09:50 -32.89241 -60.78216 90 ft 6 kts 190°
2026-05-07 09:51 -32.89691 -60.78319 93 ft 120 kts 192°
2026-05-07 09:51 -32.90742 -60.78566 517 ft 179 kts 192°
2026-05-07 09:51 -32.92112 -60.78903 1385 ft 208 kts 189°
2026-05-07 09:51 -32.93449 -60.79124 2495 ft 181 kts 185°
2026-05-07 09:52 -32.94667 -60.79190 3335 ft 170 kts 178°
2026-05-07 09:52 -32.95835 -60.79217 3914 ft 168 kts 188°
2026-05-07 09:52 -32.96909 -60.79738 4480 ft 168 kts 204°
2026-05-07 09:52 -32.98020 -60.80184 5057 ft 170 kts 192°
2026-05-07 09:53 -32.99170 -60.80469 5628 ft 171 kts 191°
2026-05-07 09:53 -33.00353 -60.80731 6204 ft 177 kts 189°
2026-05-07 09:53 -33.01651 -60.80647 6794 ft 199 kts 169°
2026-05-07 09:53 -33.02967 -60.79922 7403 ft 221 kts 148°
2026-05-07 09:54 -33.04187 -60.78686 8020 ft 242 kts 143°
2026-05-07 09:54 -33.05556 -60.77271 8686 ft 279 kts 143°
2026-05-07 09:54 -33.07114 -60.75652 9363 ft 313 kts 142°
2026-05-07 09:54 -33.08829 -60.73867 10015 ft 342 kts 142°
2026-05-07 09:55 -33.10689 -60.71941 10649 ft 366 kts 142°
2026-05-07 09:55 -33.12678 -60.69904 11288 ft 387 kts 142°
2026-05-07 09:55 -33.14769 -60.67761 11931 ft 404 kts 141°
2026-05-07 09:55 -33.16937 -60.65525 12578 ft 420 kts 141°
2026-05-07 09:56 -33.19177 -60.63215 13227 ft 433 kts 140°
2026-05-07 09:56 -33.21464 -60.60859 13827 ft 445 kts 140°
2026-05-07 09:56 -33.23843 -60.58408 14412 ft 455 kts 139°
2026-05-07 09:56 -33.26266 -60.55906 15003 ft 464 kts 139°
2026-05-07 09:57 -33.28732 -60.53357 15605 ft 472 kts 138°
2026-05-07 09:57 -33.31233 -60.50774 16209 ft 478 kts 138°
2026-05-07 09:57 -33.33811 -60.48227 16816 ft 485 kts 143°
2026-05-07 09:57 -33.36735 -60.46086 17431 ft 500 kts 150°
2026-05-07 09:58 -33.39785 -60.43981 18068 ft 512 kts 149°
2026-05-07 09:58 -33.42888 -60.41806 18627 ft 522 kts 149°
2026-05-07 09:58 -33.46048 -60.39590 19196 ft 529 kts 149°
2026-05-07 09:58 -33.49238 -60.37369 19776 ft 533 kts 150°
2026-05-07 09:59 -33.52417 -60.35157 20358 ft 534 kts 150°
2026-05-07 09:59 -33.55676 -60.32875 20974 ft 536 kts 150°
2026-05-07 09:59 -33.58859 -60.30639 21567 ft 538 kts 150°
2026-05-07 09:59 -33.62136 -60.28345 22197 ft 540 kts 151°
2026-05-07 10:00 -33.65390 -60.26067 22836 ft 541 kts 151°
2026-05-07 10:00 -33.68605 -60.23810 23431 ft 542 kts 151°
2026-05-07 10:00 -33.71864 -60.21517 23975 ft 543 kts 152°
2026-05-07 10:00 -33.75121 -60.19222 24533 ft 544 kts 152°
2026-05-07 10:01 -33.78401 -60.16918 25094 ft 545 kts 152°
2026-05-07 10:01 -33.81559 -60.14404 25655 ft 547 kts 143°
2026-05-07 10:01 -33.84405 -60.11345 26227 ft 549 kts 134°
2026-05-07 10:01 -33.86862 -60.07835 26811 ft 548 kts 125°
2026-05-07 10:02 -33.89003 -60.04038 27417 ft 547 kts 122°
2026-05-07 10:02 -33.91123 -60.00240 28038 ft 545 kts 124°
2026-05-07 10:02 -33.93241 -59.96458 28669 ft 545 kts 122°
2026-05-07 10:02 -33.95356 -59.92666 29315 ft 545 kts 122°
2026-05-07 10:03 -33.97467 -59.88870 29933 ft 545 kts 122°
2026-05-07 10:03 -33.99580 -59.85073 30488 ft 544 kts 122°
2026-05-07 10:03 -34.01659 -59.81338 31053 ft 543 kts 122°
2026-05-07 10:03 -34.03765 -59.77548 31635 ft 542 kts 122°
2026-05-07 10:04 -34.05859 -59.73771 32232 ft 541 kts 122°
2026-05-07 10:04 -34.07948 -59.70002 32833 ft 539 kts 122°
2026-05-07 10:04 -34.10028 -59.66246 33449 ft 537 kts 121°
2026-05-07 10:04 -34.12101 -59.62499 34013 ft 535 kts 121°
2026-05-07 10:05 -34.14160 -59.58772 34554 ft 533 kts 122°
2026-05-07 10:05 -34.18316 -59.51235 34634 ft 550 kts 122°
2026-05-07 10:06 -34.22665 -59.43479 34626 ft 557 kts 127°
2026-05-07 10:06 -34.27532 -59.36267 34629 ft 558 kts 128°
2026-05-07 10:07 -34.32400 -59.28963 34626 ft 558 kts 128°
2026-05-07 10:07 -34.37299 -59.21673 34627 ft 557 kts 128°
2026-05-07 10:08 -34.42160 -59.14374 34614 ft 556 kts 128°
2026-05-07 10:08 -34.46981 -59.07153 34608 ft 555 kts 128°
2026-05-07 10:09 -34.49382 -59.03544 34611 ft 554 kts 128°
2026-05-07 10:10 -34.54219 -58.96257 34607 ft 554 kts 128°
2026-05-07 10:10 -34.59057 -58.88965 34590 ft 554 kts 128°
2026-05-07 10:11 -34.63848 -58.81722 34579 ft 554 kts 127°
2026-05-07 10:11 -34.68673 -58.74417 34575 ft 554 kts 127°
2026-05-07 10:12 -34.73484 -58.67114 34576 ft 554 kts 127°
2026-05-07 10:12 -34.78739 -58.60274 34573 ft 553 kts 141°
2026-05-07 10:13 -34.84084 -58.56064 34573 ft 549 kts 157°
2026-05-07 10:13 -34.88770 -58.53852 34578 ft 542 kts 169°
2026-05-07 10:13 -34.92432 -58.52889 34573 ft 535 kts 178°
2026-05-07 10:14 -34.99800 -58.52226 34590 ft 530 kts 183°
2026-05-07 10:14 -35.05936 -58.51753 34598 ft 530 kts 183°
2026-05-07 10:15 -35.13288 -58.51199 34613 ft 529 kts 184°
2026-05-07 10:15 -35.20640 -58.50638 34616 ft 526 kts 183°
2026-05-07 10:16 -35.27912 -58.50086 34620 ft 523 kts 184°
2026-05-07 10:16 -35.35129 -58.49536 34618 ft 521 kts 184°
2026-05-07 10:17 -35.38547 -58.49274 34624 ft 521 kts 184°
2026-05-07 10:17 -35.45210 -58.48765 34620 ft 519 kts 184°
2026-05-07 10:18 -35.52419 -58.48214 34625 ft 518 kts 184°
2026-05-07 10:18 -35.59614 -58.47661 34622 ft 516 kts 184°
2026-05-07 10:19 -35.66783 -58.47111 34631 ft 515 kts 184°
2026-05-07 10:19 -35.73892 -58.46536 34622 ft 516 kts 181°
2026-05-07 10:20 -35.80966 -58.44557 34621 ft 524 kts 171°
2026-05-07 10:20 -35.88020 -58.42249 34620 ft 523 kts 171°
2026-05-07 10:21 -35.95059 -58.39950 34622 ft 523 kts 171°
2026-05-07 10:21 -36.02089 -58.37642 34621 ft 522 kts 171°
2026-05-07 10:22 -36.09110 -58.35340 34633 ft 522 kts 171°
2026-05-07 10:22 -36.16128 -58.33029 34617 ft 521 kts 171°
2026-05-07 10:23 -36.23096 -58.30734 34625 ft 520 kts 171°
2026-05-07 10:23 -36.30087 -58.28424 34617 ft 520 kts 171°
2026-05-07 10:24 -36.37084 -58.26110 34618 ft 520 kts 171°
2026-05-07 10:24 -36.44126 -58.23779 34609 ft 529 kts 169°
2026-05-07 10:25 -36.51270 -58.21403 34610 ft 533 kts 169°
2026-05-07 10:25 -36.58448 -58.19015 34616 ft 533 kts 170°
2026-05-07 10:26 -36.65623 -58.16624 34607 ft 533 kts 170°
2026-05-07 10:26 -36.72735 -58.14247 34603 ft 532 kts 170°
2026-05-07 10:27 -36.79902 -58.11850 34601 ft 532 kts 170°
2026-05-07 10:27 -36.87040 -58.09456 34599 ft 531 kts 170°
2026-05-07 10:28 -36.94178 -58.07059 34597 ft 530 kts 170°
2026-05-07 10:28 -37.01298 -58.04661 34591 ft 529 kts 171°
2026-05-07 10:29 -37.08223 -58.01367 34578 ft 540 kts 154°
2026-05-07 10:29 -37.14564 -57.96273 34574 ft 542 kts 150°
2026-05-07 10:30 -37.24003 -57.88562 34568 ft 542 kts 150°
2026-05-07 10:30 -37.30306 -57.83387 34572 ft 541 kts 150°
2026-05-07 10:31 -37.36618 -57.78205 34568 ft 541 kts 150°
2026-05-07 10:31 -37.42918 -57.73014 34563 ft 541 kts 150°
2026-05-07 10:32 -37.49218 -57.67819 34559 ft 540 kts 150°
2026-05-07 10:32 -37.55521 -57.62794 34556 ft 538 kts 152°
2026-05-07 10:33 -37.61873 -57.57803 34545 ft 538 kts 152°
2026-05-07 10:33 -37.68227 -57.52837 34543 ft 537 kts 152°
2026-05-07 10:34 -37.74299 -57.48064 34536 ft 537 kts 152°
2026-05-07 10:34 -37.80637 -57.43079 34533 ft 534 kts 152°
2026-05-07 10:35 -37.83660 -57.40686 34524 ft 483 kts 152°
2026-05-07 10:35 -37.86292 -57.38581 34140 ft 420 kts 153°
2026-05-07 10:35 -37.88757 -57.36654 32529 ft 406 kts 154°
2026-05-07 10:35 -37.91093 -57.34871 31110 ft 378 kts 158°
2026-05-07 10:36 -37.93420 -57.33818 29756 ft 342 kts 181°
2026-05-07 10:36 -37.95651 -57.33857 28237 ft 303 kts 205°
2026-05-07 10:36 -37.97447 -57.34845 26783 ft 265 kts 229°
2026-05-07 10:36 -37.98575 -57.36462 25402 ft 229 kts 255°
2026-05-07 10:37 -37.98867 -57.38301 24107 ft 205 kts 282°
2026-05-07 10:37 -37.98338 -57.39906 22809 ft 197 kts 304°
2026-05-07 10:37 -37.97507 -57.41270 21367 ft 194 kts 303°
2026-05-07 10:37 -37.96780 -57.42701 19998 ft 191 kts 298°
2026-05-07 10:38 -37.96155 -57.44175 18686 ft 189 kts 296°
2026-05-07 10:38 -37.95555 -57.45651 17362 ft 188 kts 296°
2026-05-07 10:38 -37.94949 -57.47124 15963 ft 189 kts 297°
2026-05-07 10:38 -37.94342 -57.48587 14634 ft 191 kts 297°
2026-05-07 10:39 -37.93720 -57.50084 13360 ft 193 kts 298°
2026-05-07 10:39 -37.93086 -57.51609 11952 ft 197 kts 297°
2026-05-07 10:39 -37.92443 -57.53157 10610 ft 200 kts 296°
2026-05-07 10:39 -37.91789 -57.54731 9318 ft 204 kts 295°
2026-05-07 10:40 -37.91124 -57.56332 7933 ft 206 kts 295°
2026-05-07 10:40 -37.90455 -57.57940 6603 ft 207 kts 295°
2026-05-07 10:40 -37.89781 -57.59560 5285 ft 208 kts 295°
2026-05-07 10:40 -37.89110 -57.61171 3945 ft 207 kts 295°
2026-05-07 10:41 -37.88445 -57.62767 2614 ft 203 kts 296°
2026-05-07 10:41 -37.87787 -57.64348 1391 ft 200 kts 298°
2026-05-07 10:41 -37.87209 -57.65736 1205 ft 158 kts 299°
2026-05-07 10:41 -37.86749 -57.66840 1133 ft 129 kts 299°
2026-05-07 10:42 -37.86334 -57.67833 779 ft 129 kts 298°
2026-05-07 10:42 -37.85920 -57.68819 647 ft 122 kts 296°
2026-05-07 10:42 -37.85518 -57.69773 395 ft 123 kts 294°
2026-05-07 10:42 -37.85139 -57.70688 141 ft 111 kts 293°
2026-05-07 10:43 -37.85055 -57.71027 131 ft 0 kts 285°